Tracking 20083 objects as of 12-Dec-2019
HD Live streaming from Space Station
objects crossing your sky now

DIAMANT B-P4 DEB

Track DIAMANT B-P4 DEB now!
10-day predictions


NORAD ID: 7654
Int'l Code: 1975-010C
Perigee: 793.6 km
Apogee: 1,048.3 km
Inclination: 49.8 °
Period: 103.3 minutes
Semi major axis: 7291 km
RCS: 0.0394 m2 (small)
Launch date: February 6, 1975
Source: France (FR)
Launch site: FRENCH GUIANA (FRGUI)

Note: This is SATELLITE DEBRIS
aabbcc
Your satellite tracking list
Your tracking list is empty




NASA's NSSDC Master Catalog

Two Line Element Set (TLE):
1  7654U 75010C   19346.17538001 -.00000053  00000-0  63026-4 0  9993
2  7654  49.8460  47.3773 0174676   5.8658 354.4234 13.94240027278137
Source of the keplerian elements: AFSPC